Voltar ao catálogo

STARLINK-32927

AtivoComunicaçõesVLEO
NORAD 63094·PAYLOAD·🇺🇸 United States

Lançado Feb 23, 2025 de Vandenberg Space Force Base

Loading…

Próximas Passagens (próximas 24 horas)

TLE

AtualizadoSource: CelesTrak SupGP

Época: Sep 15, 2026, 02:16 UTC

1 63094C 25037T   26258.09493056 -.00038915  00000+0 -13538-2 0  2585
2 63094  70.0007 235.1060 0003433 266.5935 256.2235 15.29594975    16

Acompanhe STARLINK-32927 em tempo real com AllMySat

Download on the App Store